• In Hungary
  • List of Countries
  • For 7 days
  • Water Temperature
  • Satellite Maps
  • Weather Map
  • News
  • Weather Widgets
  • user-avatar
    Login

    Hourly Weather Irkilik

    Today, 20 October, Friday

    Time Temperature Precipitation Wind Pressure Humidity
    00:00 -4°C° 0 mm 1 mps 666 mmHg 90%
    01:00 -4°C° 0 mm 1 mps 667 mmHg 90%
    02:00 -4°C° 0 mm 1 mps 667 mmHg 90%
    03:00 -4°C° 0 mm 1 mps 667 mmHg 90%
    04:00 -4°C° 0 mm 1 mps 667 mmHg 91%
    05:00 -4°C° 0 mm 1 mps 667 mmHg 90%
    06:00 -6°C° 0 mm 1 mps 667 mmHg 89%
    07:00 -6°C° 0 mm 1 mps 668 mmHg 89%
    08:00 -3°C° 0 mm 1 mps 668 mmHg 77%
    09:00 -1°C° 0 mm 1 mps 669 mmHg 65%
    10:00 +1°C° 0 mm 1 mps 669 mmHg 53%
    11:00 +2°C° 0 mm 1 mps 669 mmHg 48%
    12:00 +3°C° 0 mm 1 mps 669 mmHg 43%
    13:00 +4°C° 0 mm 1 mps 669 mmHg 39%
    14:00 +3°C° 0 mm 1 mps 668 mmHg 43%
    15:00 +2°C° 0 mm 1 mps 668 mmHg 46%
    16:00 +1°C° 0 mm 1 mps 668 mmHg 50%
    17:00 -1°C° 0 mm 1 mps 667 mmHg 54%
    18:00 -2°C° 0 mm 1 mps 667 mmHg 58%
    19:00 -4°C° 0 mm 1 mps 667 mmHg 62%
    20:00 -4°C° 0 mm 1 mps 667 mmHg 62%
    21:00 -4°C° 0 mm 1 mps 667 mmHg 61%
    22:00 -4°C° 0 mm 1 mps 667 mmHg 61%
    23:00 -6°C° 0 mm 1 mps 667 mmHg 61%

    Tomorrow, 21 October, Saturday

    Time Temperature Precipitation Wind Pressure Humidity
    00:00 -6°C° 0 mm 1 mps 666 mmHg 61%
    01:00 -7°C° 0 mm 2 mps 666 mmHg 60%
    02:00 -6°C° 0 mm 1 mps 666 mmHg 60%
    03:00 -6°C° 0 mm 1 mps 666 mmHg 60%
    04:00 -6°C° 0 mm 1 mps 666 mmHg 60%
    05:00 -6°C° 0 mm 1 mps 666 mmHg 59%
    06:00 -6°C° 0 mm 1 mps 666 mmHg 59%
    07:00 -6°C° 0 mm 1 mps 667 mmHg 58%
    08:00 -3°C° 0.1 mm 1 mps 667 mmHg 56%
    09:00 -1°C° 0.1 mm 1 mps 668 mmHg 53%
    10:00 0°C° 0.1 mm 1 mps 668 mmHg 51%
    11:00 +1°C° 0.2 mm 1 mps 668 mmHg 55%
    12:00 0°C° 0.2 mm 0 mps 668 mmHg 60%
    13:00 0°C° 0.2 mm 0 mps 668 mmHg 64%
    14:00 0°C° 0.1 mm 0 mps 668 mmHg 68%
    15:00 -1°C° 0.1 mm 0 mps 668 mmHg 73%
    16:00 -1°C° 0.1 mm 0 mps 668 mmHg 77%
    17:00 -2°C° 0 mm 0 mps 668 mmHg 81%
    18:00 -3°C° 0 mm 0 mps 668 mmHg 85%
    19:00 -4°C° 0 mm 0 mps 668 mmHg 89%
    20:00 -4°C° 0 mm 0 mps 668 mmHg 90%
    21:00 -4°C° 0 mm 0 mps 668 mmHg 91%
    22:00 -4°C° 0 mm 1 mps 668 mmHg 91%
    23:00 -4°C° 0 mm 1 mps 668 mmHg 92%

    Day after tomorrow, 22 October, Sunday

    Time Temperature Precipitation Wind Pressure Humidity
    00:00 -4°C° 0 mm 1 mps 668 mmHg 92%
    01:00 -4°C° 0 mm 1 mps 668 mmHg 93%
    02:00 -4°C° 0 mm 1 mps 668 mmHg 93%
    03:00 -4°C° 0 mm 1 mps 668 mmHg 94%
    04:00 -4°C° 0 mm 1 mps 668 mmHg 94%
    05:00 -4°C° 0 mm 1 mps 668 mmHg 94%
    06:00 -5°C° 0 mm 2 mps 668 mmHg 94%
    07:00 -5°C° 0 mm 2 mps 668 mmHg 93%
    08:00 -3°C° 0 mm 2 mps 668 mmHg 86%
    09:00 -1°C° 0 mm 2 mps 669 mmHg 78%
    10:00 +2°C° 0 mm 2 mps 669 mmHg 70%
    11:00 +3°C° 0 mm 2 mps 669 mmHg 66%
    12:00 +4°C° 0 mm 2 mps 668 mmHg 61%
    13:00 +6°C° 0 mm 2 mps 668 mmHg 57%
    14:00 +5°C° 0 mm 2 mps 668 mmHg 61%
    15:00 +4°C° 0 mm 2 mps 667 mmHg 65%
    16:00 +4°C° 0 mm 1 mps 667 mmHg 69%
    17:00 +2°C° 0 mm 1 mps 666 mmHg 73%
    18:00 -1°C° 0 mm 2 mps 666 mmHg 76%
    19:00 -2°C° 0 mm 2 mps 666 mmHg 80%
    20:00 -2°C° 0 mm 2 mps 666 mmHg 81%
    21:00 -3°C° 0 mm 2 mps 666 mmHg 83%
    22:00 -3°C° 0 mm 2 mps 666 mmHg 84%
    23:00 -3°C° 0 mm 2 mps 665 mmHg 84%

    23 October, Monday

    Time Temperature Precipitation Wind Pressure Humidity
    00:00 -3°C° 0 mm 2 mps 665 mmHg 85%
    01:00 -4°C° 0 mm 2 mps 665 mmHg 85%
    02:00 -4°C° 0 mm 2 mps 665 mmHg 85%
    03:00 -4°C° 0 mm 2 mps 664 mmHg 86%
    04:00 -4°C° 0 mm 2 mps 664 mmHg 86%
    05:00 -5°C° 0 mm 2 mps 664 mmHg 85%
    06:00 -5°C° 0 mm 2 mps 664 mmHg 84%
    07:00 -3°C° 0 mm 1 mps 664 mmHg 84%
    08:00 0°C° 0 mm 1 mps 665 mmHg 75%
    09:00 +2°C° 0 mm 1 mps 665 mmHg 66%
    10:00 +4°C° 0 mm 1 mps 665 mmHg 57%
    11:00 +5°C° 0 mm 1 mps 665 mmHg 55%
    12:00 +6°C° 0 mm 1 mps 665 mmHg 52%
    13:00 +7°C° 0 mm 1 mps 665 mmHg 50%
    14:00 +6°C° 0 mm 1 mps 665 mmHg 55%
    15:00 +5°C° 0 mm 1 mps 665 mmHg 60%
    16:00 +4°C° 0 mm 1 mps 665 mmHg 65%
    17:00 +2°C° 0 mm 1 mps 665 mmHg 69%
    18:00 +1°C° 0 mm 1 mps 665 mmHg 73%
    19:00 0°C° 0 mm 1 mps 666 mmHg 77%
    20:00 0°C° 0 mm 1 mps 666 mmHg 78%
    21:00 0°C° 0 mm 1 mps 666 mmHg 78%
    22:00 -1°C° 0 mm 1 mps 667 mmHg 79%
    23:00 -1°C° 0 mm 1 mps 667 mmHg 80%

    24 October, Tuesday

    Time Temperature Precipitation Wind Pressure Humidity
    00:00 -1°C° 0 mm 1 mps 667 mmHg 81%
    01:00 -1°C° 0 mm 1 mps 668 mmHg 82%
    02:00 -1°C° 0 mm 1 mps 668 mmHg 84%
    03:00 -1°C° 0 mm 1 mps 668 mmHg 85%
    04:00 -1°C° 0 mm 1 mps 669 mmHg 86%
    05:00 -1°C° 0 mm 1 mps 669 mmHg 87%
    06:00 -1°C° 0 mm 1 mps 669 mmHg 87%
    07:00 -2°C° 0 mm 0 mps 669 mmHg 87%
    08:00 0°C° 0 mm 0 mps 670 mmHg 78%
    09:00 +3°C° 0 mm 1 mps 670 mmHg 70%
    10:00 +6°C° 0 mm 1 mps 671 mmHg 61%
    11:00 +6°C° 0 mm 1 mps 670 mmHg 59%
    12:00 +7°C° 0 mm 1 mps 670 mmHg 56%
    13:00 +8°C° 0 mm 1 mps 670 mmHg 54%
    14:00 +7°C° 0 mm 1 mps 669 mmHg 59%
    15:00 +6°C° 0 mm 1 mps 669 mmHg 63%
    16:00 +5°C° 0 mm 1 mps 668 mmHg 68%
    17:00 +3°C° 0 mm 1 mps 668 mmHg 71%
    18:00 +2°C° 0 mm 1 mps 668 mmHg 75%
    19:00 +1°C° 0 mm 1 mps 668 mmHg 78%
    20:00 +1°C° 0 mm 1 mps 667 mmHg 79%
    21:00 0°C° 0 mm 1 mps 667 mmHg 81%
    22:00 0°C° 0 mm 1 mps 667 mmHg 82%
    23:00 0°C° 0 mm 1 mps 667 mmHg 83%

    25 October, Wednesday

    Time Temperature Precipitation Wind Pressure Humidity
    00:00 -1°C° 0 mm 1 mps 666 mmHg 84%
    01:00 -1°C° 0 mm 1 mps 666 mmHg 85%
    02:00 -1°C° 0 mm 1 mps 666 mmHg 86%
    03:00 -1°C° 0 mm 1 mps 666 mmHg 86%
    04:00 -2°C° 0 mm 1 mps 665 mmHg 87%
    05:00 -2°C° 0 mm 1 mps 665 mmHg 87%
    06:00 -2°C° 0 mm 1 mps 665 mmHg 87%
    07:00 -2°C° 0 mm 1 mps 665 mmHg 88%
    08:00 0°C° 0 mm 1 mps 665 mmHg 79%
    09:00 +3°C° 0 mm 1 mps 665 mmHg 70%
    10:00 +5°C° 0 mm 1 mps 665 mmHg 61%
    11:00 +6°C° 0 mm 1 mps 665 mmHg 58%
    12:00 +7°C° 0 mm 1 mps 665 mmHg 55%
    13:00 +8°C° 0 mm 1 mps 664 mmHg 51%
    14:00 +6°C° 0 mm 1 mps 664 mmHg 56%
    15:00 +5°C° 0 mm 1 mps 663 mmHg 60%
    16:00 +4°C° 0 mm 1 mps 662 mmHg 65%
    17:00 +3°C° 0 mm 1 mps 662 mmHg 68%
    18:00 +2°C° 0 mm 1 mps 662 mmHg 71%
    19:00 +1°C° 0 mm 1 mps 662 mmHg 74%
    20:00 +1°C° 0 mm 1 mps 662 mmHg 75%
    21:00 +1°C° 0 mm 1 mps 661 mmHg 75%
    22:00 0°C° 0 mm 1 mps 661 mmHg 76%
    23:00 0°C° 0 mm 1 mps 661 mmHg 77%
    Show more